Tracking 35274 objects as of 10-Sep-2026
HD Live streaming from Space Station
objects crossing your sky now

CZ-2D DEB

Track CZ-2D DEB now!
10-day predictions


NORAD ID: 44610
Int'l Code: 2017-060C
Launch date: October 9, 2017
Source: People's Republic of China (PRC)
Launch site: Jiuquan Satellite Launch Center, China (JSC)

Note: This is SATELLITE DEBRIS
Your satellite tracking list
Your tracking list is empty




NASA's NSSDC Master Catalog

Two Line Element Set (TLE):
1 44610U 17060C   26250.54962038  .00005352  00000-0  33285-3 0  9990
2 44610  98.2279 103.2000 0016622 173.4270 186.7179 15.10003113481671
Source of the keplerian elements: AFSPC